STARLINK-34471, 64739

Orbit data source: Space-Track

STARLINK-34471, 64739 is a payload satellite owned by SpaceX/Seattle (US) in LEO that was launched on Wed, 02 Jul 2025 UTC via an FALCON 9 launch vehicle from the Air Force Eastern Test Range (AFETR). Payload-class satellites include a variety of spacecraft equipped with specific instruments for various scientific and technological missions. These include communications satellites like Starlink; space stations such as the ISS; scientific satellites like the Hubble; Earth observation satellites from companies like Planet Labs, Umbra, and HawkEye 360; GPS; miniature CubeSats for education and research; and military/defense satellites.

Loading next visibility...
Identifier
64739, 2025-144R
Orbit
LEO
Country
Flag of USUS
Related business
Manufacturer
SpaceX/Seattle
Mission
Operational Commercial Communications
Bus & Motor
STARLINK V2MO, Unknown motor
Mass
575 kg wet, ~530 kg dry
Launch date (UTC)
2025-07-02 (1 year ago)
Launch vehicle
FALCON 9
Launch site
Air Force Eastern Test Range (AFETR)
Object type
Payload
Rocket body
Debris
Shape & HBR
Box + 2 Pan, 17.7 m
Radar Cross Section
36.964 m², Large (>1 m²)

Expand to show TLE details & history
Last TLE update: 22 hours ago

TLE from 22 hours ago
0 STARLINK-34471
1 64739U 25144R   26170.93032430  .00011580  00000-0  40234-3 0  9996
2 64739  53.1580  66.2659 0001206  89.4496 270.6643 15.30211074 55301
Epoch: 2026-06-19T22:19Z
TLE epoch observation values (Epoch: 2026-06-19T22:19:40.019Z)
Latitude
-0.00002°
Longitude
-176.8031°
Altitude
476.072 km
Speed
7.629 km/s
True Right ascension
04h 25m 03s
True Declination
0° 00' 00"
Sunlit
Object was in daylight at epoch
Visualization orbit readout
Latitude
Unknown
Longitude
Unknown
Altitude
Unknown
Speed
Unknown
Apparent Right ascension
Unknown
Apparent Declination
Unknown
Sunlit
N/A
Visualization observer readout
Local Sidereal Time
07:21:43
Azimuth
Unknown
Elevation
Unknown
Doppler factor
Unknown
Orbital elements
Apogee altitude
476.265 km
Perigee altitude
474.612 km
Semi-major axis
6,853.576 km
Eccentricity
0.00012
Inclination
53.158°
RAAN
66.2659°
Arg. of periapsis
89.4496°
True anomaly
270.65048°
Mean anomaly
270.6643°
Eccentric anomaly
270.65739°
Mean motion
3.82532 °/min
Orbital period
94.11 mins
BSTAR
0.00040234
Loading maneuver chart data...
Computing Atmospheric mass density...
Loading historical data...
Loading historical data...
Loading historical data...
Loading historical data...
Loading historical data...
Loading historical data...
Loading historical data...

Documentation

Showing up to 5 results
|